UAL50 LEMD-KEWR

Flight info

Callsign UAL50
Flight time N/A
Altitude 31000
Route ZMR N733 DESAT DCT STG/N0463F320 DCT PASAS/M080F340 DCT 48N020W 50N030W/M080F360 52N040W 51N050W DCT ALLRY/N0463F360 DCT FROSS DCT KJOHN DCT HANAA/N0408F240 FLOSI4
Aircraft B764/H-SDE3FGHIM3RWXY/LB1

Departure

Time 2026-05-05 13:53
Airport Adolfo Suárez Madrid–Barajas Airport (LEMD)

Arrival

Time N/A
Airport Newark Liberty International Airport (KEWR)
Time Latitude Longitude Altitude Speed Heading
2026-05-05 12:51 40.46053 -3.57468 1963 ft 0 kts 314°
2026-05-05 13:29 40.46040 -3.57450 1963 ft 3 kts 314°
2026-05-05 13:29 40.46025 -3.57430 1963 ft 2 kts 321°
2026-05-05 13:30 40.46009 -3.57419 1963 ft 2 kts 349°
2026-05-05 13:30 40.45992 -3.57419 1963 ft 2 kts 13°
2026-05-05 13:30 40.45982 -3.57424 1963 ft 0 kts 43°
2026-05-05 13:30 40.45981 -3.57425 1963 ft 0 kts 44°
2026-05-05 13:37 40.45983 -3.57423 1963 ft 1 kts 44°
2026-05-05 13:37 40.46011 -3.57386 1963 ft 9 kts 44°
2026-05-05 13:37 40.46018 -3.57377 1963 ft 0 kts 43°
2026-05-05 13:42 40.46021 -3.57375 1964 ft 1 kts 44°
2026-05-05 13:42 40.46034 -3.57357 1964 ft 3 kts 44°
2026-05-05 13:42 40.46058 -3.57325 1964 ft 7 kts 46°
2026-05-05 13:42 40.46096 -3.57256 1964 ft 11 kts 75°
2026-05-05 13:43 40.46066 -3.57172 1964 ft 10 kts 135°
2026-05-05 13:43 40.46050 -3.57097 1964 ft 8 kts 62°
2026-05-05 13:43 40.46085 -3.57044 1964 ft 7 kts 49°
2026-05-05 13:43 40.46117 -3.56992 1964 ft 7 kts 50°
2026-05-05 13:44 40.46154 -3.56936 1964 ft 9 kts 48°
2026-05-05 13:44 40.46213 -3.56861 1964 ft 14 kts 38°
2026-05-05 13:44 40.46298 -3.56759 1964 ft 18 kts 58°
2026-05-05 13:44 40.46416 -3.56684 1964 ft 22 kts
2026-05-05 13:45 40.46584 -3.56676 1964 ft 26 kts
2026-05-05 13:45 40.46775 -3.56662 1964 ft 27 kts
2026-05-05 13:45 40.46843 -3.56657 1964 ft 1 kts
2026-05-05 13:45 40.46901 -3.56663 1964 ft 16 kts 345°
2026-05-05 13:46 40.47013 -3.56749 1964 ft 19 kts 327°
2026-05-05 13:46 40.47117 -3.56846 1964 ft 15 kts 323°
2026-05-05 13:46 40.47209 -3.56917 1964 ft 15 kts 349°
2026-05-05 13:46 40.47306 -3.56894 1964 ft 14 kts 35°
2026-05-05 13:47 40.47386 -3.56865 1964 ft 11 kts 333°
2026-05-05 13:47 40.47452 -3.56930 1964 ft 13 kts 322°
2026-05-05 13:47 40.47539 -3.57020 1964 ft 19 kts 321°
2026-05-05 13:47 40.47660 -3.57142 1964 ft 24 kts 321°
2026-05-05 13:48 40.47811 -3.57299 1964 ft 29 kts 321°
2026-05-05 13:48 40.47977 -3.57469 1964 ft 29 kts 322°
2026-05-05 13:48 40.48141 -3.57633 1964 ft 29 kts 321°
2026-05-05 13:48 40.48297 -3.57797 1964 ft 28 kts 322°
2026-05-05 13:49 40.48458 -3.57950 1964 ft 27 kts 326°
2026-05-05 13:49 40.48622 -3.58056 1964 ft 24 kts 354°
2026-05-05 13:49 40.48776 -3.58054 1964 ft 19 kts 359°
2026-05-05 13:49 40.48858 -3.57975 1964 ft 15 kts 88°
2026-05-05 13:50 40.48877 -3.57849 1964 ft 13 kts 39°
2026-05-05 13:50 40.48965 -3.57832 1964 ft 12 kts 360°
2026-05-05 13:50 40.49066 -3.57831 1964 ft 18 kts 360°
2026-05-05 13:50 40.49177 -3.57782 1964 ft 15 kts 79°
2026-05-05 13:51 40.49179 -3.57647 1964 ft 14 kts 80°
2026-05-05 13:51 40.49213 -3.57527 1964 ft 13 kts 64°
2026-05-05 13:51 40.49248 -3.57459 1964 ft 4 kts 15°
2026-05-05 13:51 40.49284 -3.57460 1964 ft 7 kts 360°
2026-05-05 13:52 40.49437 -3.57461 1964 ft 50 kts 360°
2026-05-05 13:52 40.50045 -3.57462 1964 ft 122 kts 360°
2026-05-05 13:52 40.51108 -3.57468 1965 ft 185 kts 360°
2026-05-05 13:52 40.52530 -3.57464 2402 ft 215 kts 359°
2026-05-05 13:53 40.53995 -3.57470 3555 ft 212 kts 360°
2026-05-05 13:53 40.55506 -3.57362 4073 ft 232 kts 11°
2026-05-05 13:53 40.57154 -3.56763 4370 ft 264 kts 16°
2026-05-05 13:53 40.57664 -3.56562 4483 ft 273 kts 16°